User: anonymous   Login
Location: Unspecified
(0.0000°N, 0.0000°E)
Time: 20:25:27
(UTC+00:00)
Language:

STARLINK-3386 - Orbit

View from above orbital plane
View from above orbital plane
View from above satellite
View from above satellite

Ground track
Ground track

The orbit is defined by the following mean orbital elements,

1 51126U          26145.46396683 +.00000000 +00000-0 +11101-3 0 00008
2 51126  53.2138 314.4776 0001349 103.9577 256.1566 15.08854055    02
Epoch (UTC): 25 May 2026 11:08:06
Eccentricity: 0.0001349
inclination: 53.2138°
perigee height: 539 km
apogee height: 541 km
right ascension of ascending node: 314.4776°
argument of perigee: 103.9577°
revolutions per day: 15.08854055
mean anomaly at epoch: 256.1566°

The dashed part of the orbit path shows where the satellite is in the earth's shadow,  

DLR